Wetbulb
69.40 68.94 68.75 68.00 67.51 67.17 66.88 67.36 67.48 67.50 67.43 67.15 67.04 66.70 66.86 67.46 67.87 68.64 68.62 68.14 67.21 66.41 65.80 65.19 64.63 63.24 62.22 61.37 62.34 63.37 59.74 59.85
65.25 67.38 67.31 66.82 66.57 65.97 65.99 66.49 66.42 66.57 66.08 65.63 65.28 65.38 65.74 66.25 66.42 67.11 67.38 66.84 65.79 65.10 64.59 63.76 62.70 61.37 60.60 60.14 61.44 61.44 57.54 58.73
64.73 63.67 64.27 65.33 65.66 66.24 66.20 66.28 65.53 65.13 64.79 64.28 62.55 62.31 63.32 64.28 65.08 65.66 66.16 65.54 64.85 63.75 63.12 61.81 60.59 59.69 59.81 59.97 60.47 56.32 55.40 55.31
62.61 62.07 62.79 63.88 64.60 64.29 64.71 64.99 63.81 63.48 62.38 62.02 61.26 62.64 63.42 63.77 63.65 64.13 64.60 64.29 63.71 63.27 62.46 61.03 60.53 57.11 56.31 59.51 55.14 55.10 54.16 52.52
60.21 60.91 61.04 61.10 61.38 61.46 61.41 61.72 60.84 61.02 61.67 62.36 62.42 62.98 62.94 62.33 60.88 60.39 60.06 61.44 59.05 59.94 59.73 58.70 59.66 58.33 56.24 53.96 53.80 53.22 52.49 53.33
59.29 59.56 58.72 57.84 58.20 58.22 59.70 61.12 61.33 59.24 62.39 63.25 63.33 62.55 62.07 61.30 61.34 60.40 59.95 59.68 58.82 59.04 59.22 58.95 56.84 55.46 54.15 53.14 52.46 51.32 50.71 52.88
58.87 59.65 59.09 58.17 57.65 59.00 60.79 60.99 60.64 61.35 62.68 64.50 63.89 62.55 61.83 62.02 61.96 61.02 60.16 60.48 60.27 59.00 58.55 57.38 54.68 53.77 52.61 52.15 51.72 51.18 51.33 53.43
58.68 58.40 58.82 57.23 57.87 59.05 60.32 60.45 61.12 62.24 63.74 64.03 64.44 63.28 63.50 63.32 62.29 61.67 60.20 60.47 59.96 59.41 57.82 55.01 53.55 52.70 51.52 51.37 50.93 50.48 50.24 50.50
56.55 56.87 57.98 57.27 56.77 56.16 57.24 60.25 61.68 61.42 63.03 63.06 63.40 64.23 63.65 63.02 61.50 60.54 59.72 61.13 59.72 57.32 54.58 53.26 51.67 52.03 51.11 50.72 51.14 50.24 50.33 49.38
56.69 58.04 56.70 56.44 55.81 55.49 56.62 57.25 60.57 61.73 62.05 63.12 62.52 63.38 63.40 62.48 61.54 60.81 61.00 58.45 56.89 54.82 53.30 52.00 51.66 51.51 50.47 49.99 49.84 49.76 49.28 48.76
56.67 57.03 56.39 56.34 55.85 55.17 55.36 57.74 60.97 61.23 62.36 62.25 62.87 63.87 64.20 63.08 62.33 61.03 59.40 58.22 56.34 54.67 52.81 52.53 51.10 50.74 51.37 50.33 50.22 49.07 48.94 50.25
56.36 56.74 56.87 56.29 55.93 55.65 58.30 60.64 61.00 62.28 62.60 63.01 63.55 63.85 64.21 62.63 62.08 59.58 59.04 56.51 55.34 53.74 52.60 52.34 52.27 51.30 53.32 52.13 50.30 50.01 48.82 47.59
57.04 56.91 57.40 57.35 58.90 58.20 59.03 59.04 60.85 62.23 62.40 62.69 63.88 63.72 63.50 62.64 60.88 59.36 58.65 55.96 54.03 54.61 53.32 51.71 50.79 51.58 49.34 50.31 50.60 50.28 48.45 47.45
58.76 59.20 59.65 60.29 60.58 61.02 60.12 60.60 61.57 62.29 62.82 63.36 63.57 63.21 63.08 62.17 60.43 58.87 58.07 55.65 54.32 53.89 52.96 52.14 52.25 51.59 48.33 47.14 44.50 46.23 47.28 48.62
59.74 60.56 60.91 61.81 62.18 62.45 60.65 61.54 61.90 61.70 61.78 62.34 62.83 61.35 60.96 60.74 61.22 58.85 57.04 55.61 53.76 53.92 53.01 52.17 50.46 51.49 50.00 46.76 42.61 40.50 41.68 45.64
59.89 60.46 62.06 63.17 63.31 60.59 59.16 58.72 58.94 60.77 61.50 61.90 61.97 61.03 60.32 61.40 60.93 58.75 56.47 55.73 54.17 54.13 54.72 52.72 50.76 48.72 50.72 51.30 47.74 44.62 39.73 38.07
60.00 61.13 62.40 63.15 63.43 63.04 60.20 60.63 60.69 61.64 61.70 60.92 58.94 58.49 58.65 59.39 59.01 58.41 56.93 56.34 55.71 54.06 53.45 51.52 50.69 48.58 45.86 45.69 46.10 44.39 43.79 39.95
60.94 62.11 62.70 63.28 63.62 63.40 62.44 61.34 60.72 60.31 60.19 59.05 58.26 58.06 57.80 57.77 58.27 57.56 56.78 56.09 55.26 53.38 52.50 51.10 48.25 47.04 47.26 46.71 43.57 41.38 39.87 38.94
61.79 61.95 61.52 62.97 63.13 63.33 62.81 62.28 61.28 60.71 60.17 58.54 57.02 56.25 56.46 56.36 56.91 55.93 55.80 55.65 53.60 52.10 50.16 48.12 47.36 46.38 46.35 46.06 45.06 42.68 42.96 41.83
61.46 61.65 61.55 62.55 63.50 63.46 63.44 63.66 62.58 61.90 61.02 59.08 57.80 57.54 56.45 56.49 56.94 56.39 55.94 53.94 51.09 49.66 48.43 47.98 47.00 46.62 46.41 45.12 44.42 44.88 43.54 42.43
MSLP
1009.04 1009.79 1011.04 1012.29 1012.65 1013.85 1014.43 1014.89 1015.56 1015.94 1016.60 1017.10 1017.55 1017.89 1018.13 1018.61 1018.89 1019.35 1019.77 1020.32 1020.84 1021.14 1021.42 1021.84 1022.13 1022.25 1022.13 1021.88 1021.84 1021.53 1021.56 1021.89
1010.07 1010.53 1011.60 1012.56 1013.55 1014.52 1015.04 1015.49 1016.05 1016.45 1017.17 1017.66 1017.98 1018.35 1018.36 1018.88 1019.41 1019.81 1020.16 1020.78 1021.18 1021.47 1021.88 1022.25 1022.32 1022.61 1022.53 1022.40 1022.32 1022.07 1021.92 1022.67
1010.93 1011.64 1012.05 1013.19 1013.94 1015.05 1015.66 1015.95 1016.49 1017.08 1017.83 1018.30 1018.53 1018.66 1018.78 1019.32 1019.89 1020.14 1020.41 1021.07 1021.39 1021.85 1022.04 1022.45 1022.49 1022.74 1022.64 1022.46 1022.52 1022.16 1022.49 1023.22
1012.83 1012.65 1013.13 1013.82 1014.82 1015.41 1015.49 1016.13 1016.89 1017.53 1017.96 1018.53 1018.99 1018.81 1019.24 1020.00 1020.35 1020.55 1020.70 1021.25 1021.60 1022.06 1022.04 1022.43 1022.46 1022.60 1022.65 1022.72 1022.65 1022.55 1022.91 1023.78
1012.49 1013.60 1014.02 1014.68 1015.32 1015.49 1016.24 1015.92 1017.04 1017.90 1017.83 1018.20 1018.90 1018.77 1019.88 1020.18 1020.78 1020.74 1021.44 1021.53 1021.76 1022.17 1022.47 1022.72 1022.65 1022.60 1022.81 1023.12 1023.06 1022.95 1023.39 1024.02
1013.88 1014.62 1014.99 1015.39 1015.68 1015.90 1016.77 1017.37 1017.87 1018.31 1018.09 1018.62 1018.21 1019.40 1019.89 1020.61 1020.38 1020.77 1021.32 1021.27 1021.64 1021.99 1022.47 1022.71 1022.75 1022.84 1023.21 1023.42 1023.51 1023.51 1023.65 1024.43
1014.83 1015.38 1015.77 1015.91 1016.34 1016.75 1017.17 1017.71 1018.02 1018.38 1018.31 1017.96 1018.56 1019.33 1019.76 1020.29 1020.31 1020.69 1020.82 1021.04 1021.53 1022.05 1022.60 1022.98 1022.94 1023.15 1023.42 1023.39 1023.68 1023.75 1023.71 1024.31
1015.32 1016.17 1016.28 1016.52 1017.17 1016.84 1017.13 1017.39 1018.34 1018.69 1018.49 1018.17 1018.82 1019.47 1019.99 1020.19 1020.20 1020.49 1020.62 1021.09 1021.52 1021.97 1022.42 1022.83 1022.97 1023.32 1023.76 1023.73 1023.87 1023.78 1023.91 1024.20
1015.75 1016.33 1016.39 1016.41 1017.29 1017.61 1018.03 1018.12 1018.32 1018.56 1018.25 1018.81 1019.36 1019.56 1020.00 1020.02 1020.35 1020.48 1020.82 1021.20 1021.50 1021.92 1022.31 1022.59 1022.98 1023.10 1023.52 1023.64 1023.82 1023.97 1024.24 1024.27
1016.11 1016.78 1017.24 1017.90 1018.12 1018.17 1018.50 1018.96 1018.33 1018.51 1018.89 1019.43 1019.96 1019.85 1019.85 1020.02 1020.39 1020.66 1020.83 1021.16 1021.62 1022.17 1022.61 1022.88 1023.20 1023.13 1023.26 1023.69 1023.70 1024.05 1024.27 1024.36
1016.35 1016.76 1017.41 1018.02 1018.52 1018.89 1019.14 1018.67 1018.62 1019.30 1019.28 1019.41 1019.52 1019.53 1019.79 1020.05 1020.25 1020.66 1020.78 1021.30 1021.78 1022.15 1022.47 1022.79 1022.98 1023.05 1023.28 1023.56 1023.70 1024.01 1024.07 1024.12
1016.66 1017.00 1017.45 1017.97 1018.46 1018.53 1018.36 1018.38 1018.49 1018.76 1018.86 1019.09 1019.17 1019.19 1019.54 1019.92 1019.98 1020.52 1020.91 1021.46 1021.95 1022.13 1022.50 1022.78 1022.81 1023.12 1023.30 1023.35 1023.59 1023.64 1023.84 1024.21
1016.07 1016.57 1017.16 1017.77 1018.07 1017.82 1017.60 1017.58 1017.87 1018.22 1018.30 1018.69 1018.81 1019.08 1019.35 1019.52 1019.96 1020.49 1020.99 1021.52 1021.86 1022.11 1022.65 1023.07 1023.06 1023.40 1023.79 1023.74 1023.36 1023.55 1023.96 1024.14
1015.70 1015.96 1016.33 1016.65 1016.90 1016.70 1016.75 1016.80 1017.32 1017.74 1018.17 1018.28 1018.43 1018.86 1019.07 1019.33 1019.87 1020.36 1020.81 1021.22 1021.72 1022.21 1022.69 1023.15 1022.93 1023.26 1024.01 1024.23 1024.03 1024.33 1024.33 1024.17
1014.42 1014.92 1015.23 1015.56 1015.78 1015.76 1015.84 1016.18 1016.93 1017.46 1017.89 1018.08 1018.19 1018.67 1019.22 1019.42 1019.49 1019.94 1020.46 1020.92 1021.64 1022.19 1022.47 1022.51 1022.95 1023.30 1023.70 1024.26 1024.40 1024.47 1024.52 1023.93
1013.11 1013.38 1014.04 1014.44 1014.70 1014.67 1015.14 1015.59 1016.40 1016.82 1017.30 1017.78 1018.09 1018.63 1019.16 1019.20 1019.30 1019.89 1020.37 1020.65 1021.42 1021.77 1022.03 1022.44 1022.84 1023.45 1023.80 1023.89 1024.11 1024.48 1024.92 1025.05
1012.24 1012.50 1012.87 1013.44 1013.89 1014.14 1014.40 1015.07 1015.62 1016.04 1016.72 1017.36 1018.02 1018.62 1018.88 1019.12 1019.28 1019.39 1019.80 1020.30 1020.87 1021.45 1021.92 1022.43 1022.93 1023.38 1023.80 1023.98 1023.92 1024.15 1024.36 1024.82
1011.33 1011.54 1011.93 1012.45 1013.08 1013.48 1013.95 1014.46 1015.08 1015.66 1016.28 1017.11 1017.61 1018.42 1018.89 1019.09 1019.05 1019.21 1019.78 1020.07 1020.65 1021.36 1021.85 1022.56 1023.09 1023.52 1023.79 1023.71 1024.18 1024.44 1024.51 1024.90
1010.31 1010.81 1011.10 1011.31 1012.18 1012.64 1013.06 1013.72 1014.11 1014.84 1015.46 1016.31 1017.15 1017.79 1018.13 1018.52 1018.63 1018.82 1019.31 1019.86 1020.62 1021.30 1022.21 1022.83 1023.33 1023.67 1023.80 1023.75 1023.93 1023.95 1024.08 1024.41
1009.13 1009.68 1010.29 1010.49 1011.20 1011.88 1012.39 1013.16 1013.57 1014.14 1014.71 1015.69 1016.42 1016.91 1017.48 1017.74 1018.02 1018.40 1018.96 1019.76 1020.82 1021.54 1022.45 1023.06 1023.39 1023.72 1023.73 1023.69 1023.84 1023.81 1023.85 1024.12
Wind_Speed
15 20 22 19 22 18 17 18 18 18 19 19 19 18 19 19 18 18 19 18 17 16 16 13 11 9 7 10 10 14 8 10
12 10 15 16 16 20 18 17 15 17 17 17 17 17 20 20 18 18 19 18 17 17 15 12 11 7 4 6 10 12 4 12
13 9 11 14 15 16 17 20 18 17 14 15 11 9 11 13 15 18 19 17 16 15 14 11 10 6 3 3 6 3 8 8
12 13 12 13 10 11 12 12 8 8 10 6 4 7 10 11 12 16 17 15 14 12 12 11 9 4 1 3 4 4 7 7
14 13 13 12 9 8 5 5 5 4 5 3 5 9 7 6 5 6 6 9 6 5 5 3 2 4 5 5 5 4 5 6
14 11 10 11 9 9 8 4 4 4 4 7 8 4 6 4 5 6 5 4 6 5 3 4 5 6 5 4 5 5 3 4
14 12 9 12 9 6 7 6 5 4 5 6 5 4 6 4 5 5 5 5 4 4 5 3 4 5 3 4 4 4 4 4
13 11 10 13 5 5 4 6 6 4 3 5 5 4 5 4 4 4 5 4 5 5 5 5 4 6 4 3 3 4 5 5
14 12 12 12 7 6 4 2 5 5 3 3 5 5 5 5 3 4 4 3 6 5 3 3 3 4 6 3 5 2 4 3
15 11 11 9 7 6 4 4 2 3 2 5 5 8 5 5 4 4 4 5 5 4 3 3 4 3 3 2 3 3 4 1
15 15 13 12 10 8 10 7 3 5 6 6 11 9 6 5 5 4 6 4 4 4 2 4 2 1 4 4 3 1 5 2
13 12 13 13 12 11 10 8 8 8 5 5 8 7 8 8 5 6 4 4 4 3 3 1 3 2 4 2 4 4 2 2
16 15 15 12 9 11 9 8 5 3 3 7 7 6 7 5 5 6 4 5 5 5 2 3 1 3 2 4 3 6 4 2
16 16 17 14 11 10 7 6 6 4 7 8 8 6 6 6 6 7 6 5 7 5 5 4 2 4 1 2 3 1 2 5
19 19 17 15 15 9 6 6 6 5 6 7 6 6 4 4 5 7 6 5 5 4 4 3 2 3 5 2 2 1 1 2
17 15 17 13 14 10 10 8 8 6 5 6 7 7 8 10 6 6 6 5 6 5 4 2 3 2 2 3 3 3 2 4
16 16 14 15 13 8 8 8 7 6 7 8 5 4 4 4 8 7 7 5 6 7 5 4 3 2 2 2 3 2 4 4
18 16 17 16 16 14 10 12 12 9 9 9 7 7 6 7 8 7 6 5 6 5 6 6 3 2 3 1 1 1 2 2
16 17 17 16 19 15 14 11 10 13 13 8 9 8 8 10 8 7 5 5 7 7 6 5 3 2 3 2 2 1 1 2
21 20 20 17 19 17 14 12 9 8 11 9 7 8 8 9 8 7 7 9 7 7 5 3 3 4 2 2 2 2 2 2
Wind_Direction
132 135 125 111 107 111 116 118 121 117 117 116 111 106 104 103 103 103 105 109 110 107 101 97 90 66 35 359 350 349 346 70
50 109 120 108 101 91 92 96 98 102 108 110 107 109 103 100 102 109 111 110 108 106 103 100 93 80 24 350 350 324 36 76
126 81 73 101 106 101 99 100 96 99 104 112 115 120 102 94 107 108 108 112 112 115 114 118 119 132 230 312 315 13 51 80
125 107 111 106 104 111 114 113 118 123 130 124 132 116 105 103 100 104 108 114 116 133 139 154 159 172 205 307 43 357 78 88
108 116 113 104 104 105 81 75 100 117 125 141 158 99 114 107 128 107 115 121 127 149 137 183 114 59 56 29 10 24 64 81
111 111 116 109 114 98 113 121 128 161 190 167 111 112 118 151 133 133 163 148 153 151 94 83 85 82 84 87 39 26 53 100
119 117 106 116 115 132 148 134 141 171 181 119 109 137 131 174 144 160 181 135 124 125 121 159 104 93 76 82 114 106 14 105
112 110 117 129 124 91 95 117 162 180 172 109 119 155 150 150 141 158 104 127 150 148 160 149 163 126 97 86 40 51 68 69
95 97 85 67 50 47 33 148 144 172 83 133 168 149 161 140 126 113 151 184 122 103 121 108 119 123 146 173 151 129 104 51
113 106 100 101 86 62 50 271 201 82 246 176 179 180 145 145 154 186 136 109 118 131 170 174 186 166 116 136 88 135 125 179
133 142 147 145 149 159 185 219 222 198 191 194 196 167 175 190 173 145 123 143 152 163 161 171 156 152 164 161 131 274 152 189
151 157 159 166 171 187 204 213 197 194 192 171 191 174 190 202 163 127 150 148 153 179 146 238 149 84 346 62 168 174 190 154
167 164 172 176 203 208 205 193 171 175 176 202 186 194 187 194 143 138 199 169 165 135 137 148 92 120 355 280 236 171 166 197
176 184 187 197 197 198 193 175 173 174 195 196 188 181 190 178 164 160 206 147 130 154 175 202 152 102 63 330 294 73 238 208
188 189 186 190 196 209 184 151 169 179 207 186 181 153 214 232 188 162 174 138 146 176 199 194 176 143 146 156 313 291 324 230
193 201 183 193 208 189 185 183 172 185 178 181 173 174 188 208 183 163 167 150 158 173 189 158 114 106 136 195 200 153 218 329
203 204 189 189 204 220 181 172 186 174 179 166 145 164 176 187 230 179 166 164 164 169 137 136 135 122 146 267 239 199 203 206
201 211 192 194 191 195 211 180 191 176 164 167 172 175 187 218 224 168 166 172 154 134 130 133 134 165 234 247 322 258 316 319
196 200 220 197 190 198 189 219 191 183 171 168 169 186 190 205 213 162 160 156 121 120 112 116 160 202 234 208 236 290 262 254
197 199 212 216 183 191 190 200 207 185 180 178 182 189 192 194 189 170 164 122 109 101 114 139 175 234 282 298 287 292 311 276